Hourly Data Report for November 19, 2019

All times are specified in Local Standard Time (LST). Add 1 hour to adjust for Daylight Saving Time where and when it is observed.

HOPE A
BRITISH COLUMBIA
Current Station Operator: NAVCAN

49°22'06.000" N
121°29'53.000" W
39.00 m
1113542
71187
YHE

Download Data

Hourly Data (November 2019)
Hourly Data Report for November 19, 2019
TIME Temp Definition
°C
Dew Point Definition
°C
Rel Hum Definition
%
Wind Dir Definition
10's deg

Wind Spd Definition
km/h
Visibility Definition
km
Stn Press Definition
kPa
Hmdx Definition


Wind Chill Definition


Weather Definition


00:00 8.0 6.2 88 11 17 16.1 100.09     Rain
01:00 7.3 6.6 95 9 8 16.1 100.11     Rain
02:00 6.8 6.4 97 7 5 14.5 100.16     Rain
03:00 6.9 6.5 97 LegendMM 4 14.5 100.20     Rain
04:00 6.8 6.4 97 8 9 16.1 100.21     Rain
05:00 6.9 6.5 97 9 11 16.1 100.26     Rain
06:00 6.8 6.5 98 8 8 16.1 100.29     Rain
07:00 6.8 6.4 97 7 9 16.1 100.35     Rain
08:00 6.6 6.0 96 9 11 16.1 100.44     LegendNANA
09:00 7.1 6.2 94 9 11 16.1 100.56     LegendNANA
10:00 7.7 6.5 92 11 11 16.1 100.69     LegendNANA
11:00 9.3 6.8 84 8 8 16.1 100.75     LegendNANA
12:00 9.3 6.4 82 8 8 16.1 100.78     LegendNANA
13:00 8.9 5.7 80 13 11 16.1 100.87     LegendNANA
14:00 8.8 5.6 80 10 11 16.1 100.90     LegendNANA
15:00 7.4 5.6 88 8 8 16.1 100.95     LegendNANA
16:00 6.3 5.1 92 8 5 16.1 101.12     LegendNANA
17:00 5.8 4.3 90 10 11 16.1 101.24     LegendNANA
18:00 5.9 4.2 89 9 11 16.1 101.39     LegendNANA
19:00 5.2 3.7 90 9 13 16.1 101.48     LegendNANA
20:00 5.6 3.0 84 11 15 16.1 101.60     LegendNANA
21:00 4.0 2.8 92 9 9 16.1 101.71     LegendNANA
22:00 4.3 2.2 86 9 11 16.1 101.75     LegendNANA
23:00 3.3 1.8 90 8 9 16.1 101.80     LegendNANA

Notes on Data Quality.

Legend

  • E = Estimated
  • M = Missing
  • NA = Not Available
Date modified: